Location: *
(45.8589°N, 4.7139°E)
Time: 04:08:13
(UTC+00:00)

CZ-4C R/B - Pass Details

Date: 09 April 2020
Orbit: 637 x 1365 km, 63.4° (Epoch: 02 June)

Event Time Altitude Azimuth Distance (km) Brightness Sun altitude
Rises 19:00:55 0° 315° (NW) 3,565 6.8 -7.6°
Reaches altitude 10° 19:04:03 10° 332° (NNW) 2,753 5.6 -8.1°
Maximum altitude 19:08:50 20° 19° (NNE) 2,263 4.5 -8.9°
Drops below altitude 10° 19:14:10 10° 64° (ENE) 3,131 4.8 -9.7°
Enters shadow 19:16:39 - 76° (ENE) 3,805 5.1 -10.1°
